{"data":{"norad_id":64441,"intl_designator":"2025-130D","name":"STARLINK-34453","alt_names":[],"object_type":"PAYLOAD","status":"ACTIVE","operator":null,"country":"US","launch_date":"2025-06-18","launch_site_code":"AFETR","launch_vehicle":null,"mission":null,"orbit_class":"UNKNOWN","rcs_meters":null,"size_class":null,"mass_kg":null,"dimensions":null,"purposes":["comms"],"wikipedia_slug":null,"has_3d_model":false,"image_url":null,"decayed_at":null,"tle_current":{"epoch":"2026-09-20T08:40:33.194784Z","epoch_age_seconds":146172,"freshness":"FRESH","line1":"1 64441U 25130D   26263.36149531  .00013177  00000+0  40039-3 0  9998","line2":"2 64441  53.1569 260.3787 0001200  90.7477 269.3663 15.34403723 70565","mean_motion":15.34403723,"eccentricity":0.00012,"inclination_deg":53.1569,"raan_deg":260.3787,"arg_perigee_deg":90.7477,"mean_anomaly_deg":269.3663,"bstar":0.00040039,"rev_number":7056,"period_min":93.847530373856,"perigee_km":461.87127518793,"apogee_km":463.51307418985,"semimajor_km":6840.8291746889,"source":"CELESTRAK","updated_at":"2026-09-21T09:00:35.352528Z"}}}